Weather in To'qaytepa

Uzbekistan     41°19′59″N   69°24′29″E
temp.,
°C
wind,
m/s
gust,
m/s
humid.,
%
clouds,
%
prec.,
mm/h
press.,
hPa
HPBL,
m
13 april, tue
tue1323:00+11nne22536 0.0 102017
02:00+10ne2255100 0.0 102012
05:00+10ne2254100 0.0 102110
08:00+13nnw1248100 0.0 1022134
11:00+16w1140100 0.0 1022531
14:00+20wsw2239100 0.0 10211334
17:00+20wnw113890 0.0 10201337
20:00+15se1151100 0.0 102011
14 april, wed
wed1423:00+13ne116099 0.0 101913
02:00+12ne335769 0.0 101832
05:00+12ene224099 0.0 101711
08:00+16ene11375 0.0 101695
11:00+21w22300 0.0 1015680
14:00+24w22270 0.0 10131742
17:00+24wnw11300 0.0 10121539
20:00+17s11480 0.1 101311
15 april, thu
thu1523:00+15sse22533 0.1 101312
02:00+14e11560 0.0 101311
05:00+12se11633 0.0 101310
08:00+16wsw22583 0.0 1015208
11:00+20sw22455 0.0 1015802
14:00+23w323099 0.0 10141423
17:00+22nw443316 0.0 1013675
20:00+15ne344886 0.0 101540
16 april, fri
fri1623:00+14ne33545 0.0 101426
02:00+14ne225597 0.0 101316
05:00+14ne2247100 0.0 101414
08:00+17ne23447 0.0 1015106
11:00+22nw22260 0.0 10141047
14:00+24wnw22230 0.0 10131811
17:00+25wnw22245 0.0 1013918
20:00+16nne33450 0.0 101540
17 april, sat
sat1723:00+15ene324017 0.0 101417
02:00+14ene224047 0.0 101314
05:00+13ne33415 0.0 101220
08:00+18nne123871 0.0 1013112
11:00+23nw3428100 0.0 10131287
14:00+25nnw432577 0.0 10111962
17:00+22nnw6737100 0.0 1011642
20:00+17nne2249100 0.0 101422